TimeCST,TemperatureF,Dew PointF,Humidity,Sea Level PressureIn,VisibilityMPH,Wind Direction,Wind SpeedMPH,Gust SpeedMPH,PrecipitationIn,Events,Conditions,WindDirDegrees,DateUTC
12:12 AM,-5.8,-9.4,84,30.28,3.0,Calm,Calm,-,N/A,Snow,Light Snow,0,2012-12-25 06:12:00
12:32 AM,-5.8,-9.4,84,30.29,5.0,WNW,3.5,-,N/A,,Overcast,290,2012-12-25 06:32:00
12:53 AM,-5.8,-9.4,84,30.29,5.0,NW,9.2,-,N/A,,Overcast,310,2012-12-25 06:53:00
1:12 AM,-5.8,-9.4,84,30.29,5.0,NW,9.2,-,N/A,,Overcast,310,2012-12-25 07:12:00
1:32 AM,-5.8,-9.4,84,30.30,10.0,NW,9.2,-,N/A,,Mostly Cloudy,310,2012-12-25 07:32:00
1:53 AM,-5.8,-9.4,84,30.30,7.0,NW,8.1,-,N/A,,Mostly Cloudy,310,2012-12-25 07:53:00
2:12 AM,-5.8,-9.4,84,30.31,5.0,WNW,5.8,-,N/A,,Mostly Cloudy,300,2012-12-25 08:12:00
2:32 AM,-5.8,-9.4,84,30.33,4.0,Calm,Calm,-,N/A,Snow,Light Snow,0,2012-12-25 08:32:00
2:53 AM,-5.8,-9.4,84,30.33,3.0,Calm,Calm,-,N/A,Snow,Light Snow,0,2012-12-25 08:53:00
3:12 AM,-5.8,-9.4,84,30.33,3.0,NW,4.6,-,N/A,,Overcast,310,2012-12-25 09:12:00
3:32 AM,-5.8,-9.4,84,30.33,5.0,NW,12.7,-,N/A,,Mostly Cloudy,320,2012-12-25 09:32:00
3:53 AM,-5.8,-9.4,84,30.33,4.0,NW,12.7,-,N/A,,Scattered Clouds,320,2012-12-25 09:53:00
4:12 AM,-5.8,-9.4,84,30.32,5.0,NW,16.1,-,N/A,,Scattered Clouds,320,2012-12-25 10:12:00
4:53 AM,-5.8,-9.4,84,30.32,4.0,NNW,17.3,-,N/A,,Clear,330,2012-12-25 10:53:00
5:12 AM,-5.8,-9.4,84,30.33,7.0,NNW,13.8,-,N/A,,Clear,330,2012-12-25 11:12:00
5:32 AM,-5.8,-9.4,84,30.33,7.0,NNW,12.7,-,N/A,,Scattered Clouds,330,2012-12-25 11:32:00
5:53 AM,-5.8,-9.4,84,30.34,7.0,NNW,12.7,-,N/A,,Scattered Clouds,330,2012-12-25 11:53:00
6:13 AM,-5.8,-9.4,84,30.35,10.0,NNW,10.4,-,N/A,,Scattered Clouds,330,2012-12-25 12:13:00
6:32 AM,-5.8,-9.4,84,30.36,10.0,NW,10.4,-,N/A,,Clear,320,2012-12-25 12:32:00
6:53 AM,-7.6,-9.4,92,30.36,10.0,NW,9.2,-,N/A,,Clear,320,2012-12-25 12:53:00
7:13 AM,-7.6,-9.4,92,30.37,10.0,NW,8.1,-,N/A,,Clear,320,2012-12-25 13:13:00
7:32 AM,-7.6,-9.4,92,30.37,10.0,NNW,8.1,-,N/A,,Clear,330,2012-12-25 13:32:00
7:53 AM,-7.6,-9.4,92,30.38,10.0,NW,6.9,-,N/A,,Clear,320,2012-12-25 13:53:00
8:13 AM,-7.6,-9.4,92,30.39,10.0,NNW,10.4,-,N/A,,Clear,330,2012-12-25 14:13:00
8:32 AM,-5.8,-9.4,84,30.40,10.0,NNW,10.4,-,N/A,,Clear,330,2012-12-25 14:32:00
8:53 AM,-5.8,-9.4,84,30.41,10.0,NW,6.9,-,N/A,,Clear,320,2012-12-25 14:53:00
9:13 AM,-5.8,-9.4,84,30.42,5.0,NW,3.5,-,N/A,,Scattered Clouds,320,2012-12-25 15:13:00
9:32 AM,-5.8,-9.4,84,30.42,10.0,NW,10.4,-,N/A,,Scattered Clouds,320,2012-12-25 15:32:00
9:53 AM,-4.0,-7.6,85,30.44,10.0,Calm,Calm,-,N/A,,Clear,0,2012-12-25 15:53:00
10:13 AM,-2.2,-7.6,78,30.44,10.0,NW,8.1,-,N/A,,Clear,320,2012-12-25 16:13:00
10:32 AM,-2.2,-5.8,85,30.44,10.0,NW,10.4,-,N/A,,Clear,320,2012-12-25 16:32:00
10:53 AM,-2.2,-5.8,85,30.44,10.0,NW,9.2,-,N/A,,Clear,320,2012-12-25 16:53:00
11:13 AM,-0.4,-5.8,78,30.44,10.0,NNW,8.1,-,N/A,,Clear,330,2012-12-25 17:13:00
11:32 AM,-0.4,-4.0,85,30.44,10.0,NW,4.6,-,N/A,,Clear,320,2012-12-25 17:32:00
11:53 AM,1.4,-2.2,85,30.44,10.0,Calm,Calm,-,N/A,,Clear,0,2012-12-25 17:53:00
12:13 PM,1.4,-2.2,85,30.44,10.0,NW,3.5,-,N/A,,Clear,320,2012-12-25 18:13:00
12:32 PM,1.4,-2.2,85,30.42,10.0,NW,5.8,-,N/A,,Clear,320,2012-12-25 18:32:00
12:53 PM,3.2,-0.4,85,30.42,10.0,NNW,4.6,-,N/A,,Clear,330,2012-12-25 18:53:00
1:32 PM,5.0,1.4,85,30.40,10.0,NW,6.9,-,N/A,,Clear,320,2012-12-25 19:32:00
1:53 PM,5.0,1.4,85,30.38,10.0,NNW,8.1,-,N/A,,Clear,330,2012-12-25 19:53:00
2:13 PM,5.0,-0.4,78,30.37,10.0,NNW,9.2,-,N/A,,Clear,330,2012-12-25 20:13:00
2:32 PM,5.0,-0.4,78,30.37,10.0,NNW,6.9,-,N/A,,Clear,330,2012-12-25 20:32:00
2:53 PM,3.2,-0.4,85,30.37,10.0,NNW,6.9,-,N/A,,Clear,330,2012-12-25 20:53:00
3:13 PM,3.2,-0.4,85,30.38,10.0,NW,5.8,-,N/A,,Clear,320,2012-12-25 21:13:00
3:32 PM,3.2,-0.4,85,30.38,10.0,NNW,8.1,-,N/A,,Clear,340,2012-12-25 21:32:00
3:53 PM,3.2,-2.2,78,30.39,10.0,NNW,3.5,-,N/A,,Clear,330,2012-12-25 21:53:00
4:13 PM,1.4,-2.2,85,30.38,10.0,NW,6.9,-,N/A,,Clear,320,2012-12-25 22:13:00
4:53 PM,1.4,-2.2,85,30.42,10.0,Calm,Calm,-,N/A,,Clear,0,2012-12-25 22:53:00
5:13 PM,1.4,-2.2,85,30.42,10.0,Calm,Calm,-,N/A,,Clear,0,2012-12-25 23:13:00
5:32 PM,1.4,-2.2,85,30.43,10.0,Calm,Calm,-,N/A,,Clear,0,2012-12-25 23:32:00
5:53 PM,1.4,-2.2,85,30.42,10.0,Calm,Calm,-,N/A,,Clear,0,2012-12-25 23:53:00
6:13 PM,1.4,-2.2,85,30.43,10.0,Calm,Calm,-,N/A,,Clear,0,2012-12-26 00:13:00
6:32 PM,1.4,-2.2,85,30.43,10.0,Calm,Calm,-,N/A,,Clear,0,2012-12-26 00:32:00
6:53 PM,1.4,-2.2,85,30.43,10.0,Calm,Calm,-,N/A,,Clear,0,2012-12-26 00:53:00
7:13 PM,1.4,-2.2,85,30.42,10.0,Calm,Calm,-,N/A,,Clear,0,2012-12-26 01:13:00
7:32 PM,1.4,-2.2,85,30.42,10.0,Calm,Calm,-,N/A,,Clear,0,2012-12-26 01:32:00
7:53 PM,1.4,-2.2,85,30.41,10.0,Calm,Calm,-,N/A,,Clear,0,2012-12-26 01:53:00
8:13 PM,1.4,-2.2,85,30.41,10.0,Calm,Calm,-,N/A,,Clear,0,2012-12-26 02:13:00
8:32 PM,1.4,-2.2,85,30.39,10.0,Calm,Calm,-,N/A,,Clear,0,2012-12-26 02:32:00
8:53 PM,1.4,-2.2,85,30.38,10.0,NNW,8.1,-,N/A,,Clear,330,2012-12-26 02:53:00
9:13 PM,1.4,-2.2,85,30.37,10.0,NNW,3.5,-,N/A,,Clear,330,2012-12-26 03:13:00
9:32 PM,1.4,-2.2,85,30.36,10.0,Calm,Calm,-,N/A,,Clear,0,2012-12-26 03:32:00
9:53 PM,1.4,-2.2,85,30.35,10.0,Calm,Calm,-,N/A,,Clear,0,2012-12-26 03:53:00
10:13 PM,1.4,-2.2,85,30.35,10.0,NNW,8.1,-,N/A,,Clear,340,2012-12-26 04:13:00
10:32 PM,1.4,-2.2,85,30.36,10.0,Calm,Calm,-,N/A,,Clear,0,2012-12-26 04:32:00
10:53 PM,1.4,-2.2,85,30.35,10.0,Calm,Calm,-,N/A,,Clear,0,2012-12-26 04:53:00
11:13 PM,1.4,-2.2,85,30.35,10.0,Calm,Calm,-,N/A,,Clear,0,2012-12-26 05:13:00
11:32 PM,1.4,-2.2,85,30.34,10.0,Calm,Calm,-,N/A,,Clear,0,2012-12-26 05:32:00